Tracking 29042 objects as of 22-Jun-2024
HD Live streaming from Space Station
objects crossing your sky now

ATLAS 5 CENTAUR DEB

Track ATLAS 5 CENTAUR DEB now!


NORAD ID: 43994
Int'l Code: 2014-055AZ
Perigee: 9,179.9 km
Apogee: 34,967.0 km
Inclination: 20.5 °
Period: 795.7 minutes
Semi major axis: 28444 km
RCS: Unknown
Launch date: September 17, 2014
Source: United States (US)
Launch site: AIR FORCE EASTERN TEST RANGE (AFETR)

Note: This is SATELLITE DEBRIS
Your satellite tracking list
Your tracking list is empty




NASA's NSSDC Master Catalog

Two Line Element Set (TLE):
1 43994U 14055AZ  24166.55118341 -.00000123  00000-0  00000-0 0  9998
2 43994  20.4722 244.0491 4532873 353.0613   2.4309  1.80969896 37559
Source of the keplerian elements: AFSPC